User: anonymous
Location: Bergen
(60.3910°N, 5.3250°E)
Time: 00:52:18
(UTC+02:00)
Language:

Cosmos 1943 - Orbit

View from above orbital plane
View from above orbital plane
View from above satellite
View from above satellite

Ground track
Ground track

The orbit data is extracted from the following two-line orbital elements,

1 19119U 88039A   14109.16306677  .00000077  00000-0  64428-4 0  1242
2 19119 071.0050 007.0615 0011332 003.7622 148.1990 14.14915136338703
Epoch (UTC): 19 April 2014 03:54:48
Eccentricity: 0.0011332
inclination: 71.0050°
perigee height: 834 km
apogee height: 851 km
right ascension of ascending node: 7.0615°
argument of perigee: 3.7622°
revolutions per day: 14.14915136
mean anomaly at epoch: 148.1990°
orbit number at epoch: 33870

The dashed part of the orbit path shows where the satellite is in the earth's shadow,  

DLR